Regional Weather Roundup
Issued by NWS

Home | Current Version | Previous Version | Graphics & Text | Print | Product List | Glossary On
Versions: 1 2 3 4 5 6 7 8 9 10 11 12 13 14 15 16 17 18 19 20 21 22 23 24 25 26 27 28 29 30 31 32 33 34 35 36 37 38 39 40 41 42 43 44 45 46 47 48 49 50
000
ASUS45 KCYS 192310
RWRWY

WYOMING REGIONAL WEATHER ROUNDUP
NATIONAL WEATHER SERVICE CHEYENNE WY
500 PM MDT THU OCT 19 2017

NOTE:  "FAIR" INDICATES FEW OR NO CLOUDS BELOW 12,000 FEET
WITH NO SIGNIFICANT WEATHER AND/OR OBSTRUCTIONS TO VISIBILITY.

WYZ001-200000-
YELLOWSTONE NATIONAL PARK

CITY           SKY/WX    TMP DP  RH WIND       PRES   REMARKS
LK YELLOWSTONE   N/A     56  14  19 VRB5      29.99F
W YELLOWSTONE  NOT AVBL

$$
WYZ002>013-054>058-071-098>099-200000-
NORTHERN WYOMING

CITY           SKY/WX    TMP DP  RH WIND       PRES   REMARKS
JACKSON        FAIR      65   9  11 SW15      29.92F
CODY           FAIR      71  24  17 S8        29.79F
GREYBULL       FAIR      75  21  13 S5        29.73F
WORLAND        FAIR      74  16  11 S9        29.75F
SHERIDAN       FAIR      81  31  16 CALM      29.70F
BUFFALO        FAIR      75  22  13 NW7       29.76S
GILLETTE       FAIR      74  20  13 S15       29.75F
HULETT         FAIR      77  18  10 S14       29.77F
NEWCASTLE      FAIR      77  18  10 S8        29.82F

$$
WYZ014>020-022>026-101>103-200000-
CENTRAL WYOMING

CITY           SKY/WX    TMP DP  RH WIND       PRES   REMARKS
BIG PINEY      FAIR      65  13  13 SW14      29.97F
PINEDALE       FAIR      63  12  14 SE6       29.98F
DUBOIS         FAIR      61  10  13 W12       29.94F
LANDER         FAIR      69  24  18 N5        29.84F
RIVERTON       FAIR      68  20  16 SE3       29.86F
CASPER         FAIR      71  12  10 SW21G28   29.86F
DOUGLAS        FAIR      70  22  16 S6        29.87F

$$
WYZ021-027>030-104>119-200000-
SOUTHERN WYOMING

CITY           SKY/WX    TMP DP  RH WIND       PRES   REMARKS
EVANSTON       FAIR      65  18  16 SW14      29.98F
KEMMERER       FAIR      64   9  11 SW16G23   29.99F
FORT BRIDGER   FAIR      64  15  14 SE8       30.01F
ROCK SPRINGS   PTSUNNY   66   6   9 NW5       29.98F
DIXON          FAIR      69  22  17 W16       30.03S
RAWLINS        FAIR      65  21  18 SW21G26   29.99F
SARATOGA       FAIR      66  23  19 W16       30.03F
LARAMIE        FAIR      66  20  17 SW13      30.02F
CHEYENNE       FAIR      67  26  21 S12       29.97S
TORRINGTON     FAIR      78  20  11 E14       29.83F
PINE BLUFFS    FAIR      70  27  19 SW5       29.93S

$$



USA.gov is the U.S. government's official web portal to all federal, state and local government web resources and services.